Location: Praha
(50.0833°N, 14.4667°E)
Time: 05:01:39
(UTC+02:00)

ISS - Visible Passes

Search period start: 26 September 2018 00:00
Search period end: 06 October 2018 00:00
Orbit: 403 x 408 km, 51.6° (Epoch: 26 September)

Date Brightness Start Highest point End Pass type
(mag) Time Alt. Az. Time Alt. Az. Time Alt. Az.
26 Sep -3.8 20:11:39 10° WSW 20:14:55 62° SSE 20:16:23 29° E visible
26 Sep -1.0 21:48:10 10° W 21:49:04 17° W 21:49:04 17° W visible
27 Sep -3.2 19:19:57 10° SW 19:23:05 41° SSE 19:26:13 10° E visible
27 Sep -3.5 20:56:13 10° W 20:59:15 67° NW 20:59:15 67° NW visible
28 Sep -3.9 20:04:15 10° WSW 20:07:33 87° NNW 20:09:23 25° ENE visible
28 Sep -1.1 21:40:55 10° W 21:42:03 20° WNW 21:42:03 20° WNW visible
29 Sep -3.8 19:12:21 10° WSW 19:15:38 71° SSE 19:18:56 10° ENE visible
29 Sep -3.5 20:48:56 10° W 20:52:07 63° NNW 20:52:07 63° NNW visible
30 Sep -3.6 19:56:55 10° W 20:00:13 68° N 20:02:08 23° ENE visible
30 Sep -1.2 21:33:34 10° WNW 21:34:48 21° WNW 21:34:48 21° WNW visible
01 Oct -3.7 20:41:35 10° WNW 20:44:47 68° N 20:44:47 68° N visible
02 Oct -3.6 19:49:35 10° W 19:52:52 64° N 19:54:46 23° ENE visible
02 Oct -1.3 21:26:09 10° WNW 21:27:26 21° WNW 21:27:26 21° WNW visible
03 Oct -3.9 20:34:09 10° WNW 20:37:24 85° NW 20:37:24 85° NW visible
04 Oct -3.8 19:42:09 10° WNW 19:45:27 72° N 19:47:23 23° E visible
04 Oct -1.3 21:18:44 10° W 21:20:03 21° W 21:20:03 21° W visible
05 Oct -3.7 20:26:40 10° WNW 20:29:56 62° SSW 20:30:03 61° S visible
